| time (UTC) | temp C | wind direction | speed KPH | gust KPH | rain 1hr cm | rain 24hr cm | rain mn cm | humidity % | barometer mb |
| 20260504175137 | 20 | 225 | 4.8 | 6.4 | 0.00 | 0.00 | 0.00 | 42 | 1009.6 |
| 20260504174117 | 20 | 248 | 4.8 | 9.7 | 0.00 | 0.00 | 0.00 | 42 | 1009.7 |
| 20260504173137 | 20 | 248 | 3.2 | 4.8 | 0.00 | 0.00 | 0.00 | 41 | 1009.8 |
| 20260504172116 | 20 | 225 | 3.2 | 8.0 | 0.00 | 0.00 | 0.00 | 42 | 1009.9 |
| 20260504171137 | 20 | 203 | 4.8 | 9.7 | 0.00 | 0.00 | 0.00 | 42 | 1009.9 |
| 20260504170116 | 20 | 270 | 4.8 | 9.7 | 0.00 | 0.00 | 0.00 | 42 | 1010.0 |
| 20260504160136 | 19 | 225 | 6.4 | 11.3 | 0.00 | 0.00 | 0.00 | 43 | 1010.9 |
| 20260504151136 | 17 | 248 | 4.8 | 11.3 | 0.00 | 0.00 | 0.00 | 52 | 1011.5 |
| 20260504150116 | 17 | 225 | 4.8 | 9.7 | 0.00 | 0.00 | 0.00 | 50 | 1011.6 |
| 20260504141116 | 16 | 248 | 3.2 | 4.8 | 0.00 | 0.00 | 0.00 | 55 | 1011.9 |
| 20260504140116 | 15 | 270 | 6.4 | 11.3 | 0.00 | 0.00 | 0.00 | 55 | 1012.0 |
| 20260504130136 | 14 | 248 | 3.2 | 9.7 | 0.00 | 0.00 | 0.00 | 56 | 1012.5 |
| 20260504120116 | 11 | 225 | 3.2 | 6.4 | 0.00 | 0.00 | 0.00 | 64 | 1012.6 |
| 20260504110116 | 5 | 0.0 | 0.0 | 0.00 | 0.00 | 0.00 | 82 | 1012.6 | |
| 20260504100116 | 3 | 0.0 | 0.0 | 0.00 | 0.00 | 0.00 | 84 | 1012.3 | |
| 20260504090115 | 3 | 0.0 | 0.0 | 0.00 | 0.00 | 0.00 | 83 | 1012.1 | |
| 20260504081115 | 3 | 0.0 | 0.0 | 0.00 | 0.00 | 0.00 | 81 | 1011.8 | |
| 20260504080115 | 3 | 0.0 | 0.0 | 0.00 | 0.00 | 0.00 | 80 | 1011.7 | |
| 20260504070116 | 6 | 0.0 | 0.0 | 0.00 | 0.00 | 0.00 | 73 | 1011.5 | |
| 20260504060136 | 4 | 0.0 | 0.0 | 0.00 | 0.00 | 0.00 | 80 | 1011.3 | |
| 20260504050116 | 5 | 0.0 | 0.0 | 0.00 | 0.00 | 0.00 | 77 | 1011.1 | |
| 20260504045116 | 5 | 0.0 | 0.0 | 0.00 | 0.00 | 0.00 | 77 | 1011.2 | |
| 20260504044116 | 5 | 0.0 | 0.0 | 0.00 | 0.00 | 0.00 | 77 | 1011.1 | |
| 20260504043116 | 5 | 0.0 | 1.6 | 0.00 | 0.00 | 0.00 | 77 | 1011.1 | |
| 20260504042116 | 5 | 0.0 | 0.0 | 0.00 | 0.00 | 0.00 | 74 | 1011.1 | |
| 20260504041116 | 5 | 0.0 | 0.0 | 0.00 | 0.00 | 0.00 | 75 | 1011.1 | |
| 20260504040116 | 5 | 0.0 | 0.0 | 0.00 | 0.00 | 0.00 | 74 | 1010.9 | |
| 20260504035116 | 5 | 0.0 | 0.0 | 0.00 | 0.00 | 0.00 | 73 | 1010.9 | |
| 20260504034116 | 6 | 0.0 | 0.0 | 0.00 | 0.00 | 0.00 | 72 | 1011.0 | |
| 20260504033116 | 6 | 0.0 | 0.0 | 0.00 | 0.00 | 0.00 | 70 | 1010.9 | |
| 20260504032116 | 6 | 0.0 | 0.0 | 0.00 | 0.00 | 0.00 | 70 | 1010.9 | |
| 20260504031116 | 6 | 0.0 | 0.0 | 0.00 | 0.00 | 0.00 | 69 | 1010.7 | |
| 20260504030136 | 6 | 0.0 | 0.0 | 0.00 | 0.00 | 0.00 | 67 | 1010.8 | |
| 20260504025136 | 6 | 0.0 | 0.0 | 0.00 | 0.00 | 0.00 | 66 | 1010.7 | |
| 20260504024115 | 6 | 0.0 | 0.0 | 0.00 | 0.00 | 0.00 | 66 | 1010.8 | |
| 20260504023116 | 6 | 0.0 | 0.0 | 0.00 | 0.00 | 0.00 | 64 | 1010.8 | |
| 20260504022116 | 7 | 0.0 | 0.0 | 0.00 | 0.00 | 0.00 | 63 | 1010.8 | |
| 20260504021116 | 7 | 0.0 | 0.0 | 0.00 | 0.00 | 0.00 | 61 | 1010.8 | |
| 20260504020136 | 8 | 0.0 | 0.0 | 0.00 | 0.00 | 0.00 | 60 | 1010.7 | |
| 20260504015136 | 8 | 0.0 | 0.0 | 0.00 | 0.00 | 0.00 | 59 | 1010.7 | |
| 20260504014115 | 8 | 0.0 | 0.0 | 0.00 | 0.00 | 0.00 | 57 | 1010.7 | |
| 20260504013136 | 8 | 0.0 | 0.0 | 0.00 | 0.00 | 0.00 | 55 | 1010.5 | |
| 20260504012135 | 9 | 0.0 | 0.0 | 0.00 | 0.00 | 0.00 | 55 | 1010.5 | |
| 20260504011115 | 10 | 0.0 | 0.0 | 0.00 | 0.00 | 0.00 | 52 | 1010.3 | |
| 20260504010115 | 10 | 0.0 | 0.0 | 0.00 | 0.00 | 0.00 | 50 | 1010.2 | |
| 20260504005116 | 10 | 0.0 | 0.0 | 0.00 | 0.00 | 0.00 | 50 | 1010.0 | |
| 20260504004115 | 11 | 0.0 | 0.0 | 0.00 | 0.00 | 0.00 | 45 | 1009.9 | |
| 20260504003115 | 12 | 0.0 | 0.0 | 0.00 | 0.00 | 0.00 | 43 | 1009.8 | |
| 20260504002115 | 12 | 0.0 | 0.0 | 0.00 | 0.00 | 0.00 | 39 | 1009.7 | |
| 20260504001135 | 12 | 0.0 | 0.0 | 0.00 | 0.00 | 0.00 | 38 | 1009.5 | |
| 20260504000136 | 12 | 0.0 | 0.0 | 0.00 | 0.00 | 0.00 | 36 | 1009.3 | |
| 20260503235115 | 13 | 0.0 | 0.0 | 0.00 | 0.00 | 0.00 | 36 | 1009.2 | |
| 20260503234115 | 13 | 0.0 | 0.0 | 0.00 | 0.00 | 0.00 | 34 | 1009.0 | |
| 20260503233116 | 13 | 315 | 1.6 | 3.2 | 0.00 | 0.00 | 0.00 | 33 | 1008.9 |
| 20260503232115 | 13 | 315 | 3.2 | 3.2 | 0.00 | 0.00 | 0.00 | 33 | 1008.8 |
| 20260503231135 | 13 | 293 | 1.6 | 4.8 | 0.00 | 0.00 | 0.00 | 32 | 1008.6 |
| 20260503230115 | 14 | 270 | 3.2 | 4.8 | 0.00 | 0.00 | 0.00 | 31 | 1008.6 |
| 20260503225115 | 15 | 315 | 3.2 | 9.7 | 0.00 | 0.00 | 0.00 | 30 | 1008.5 |
| 20260503224136 | 15 | 293 | 6.4 | 9.7 | 0.00 | 0.00 | 0.00 | 30 | 1008.4 |
| 20260503223117 | 15 | 293 | 9.7 | 14.5 | 0.00 | 0.00 | 0.00 | 30 | 1008.5 |
| 20260503222117 | 15 | 270 | 8.0 | 17.7 | 0.00 | 0.00 | 0.00 | 31 | 1008.5 |
| 20260503221117 | 15 | 338 | 8.0 | 12.9 | 0.00 | 0.00 | 0.00 | 32 | 1008.4 |
| 20260503220117 | 15 | 293 | 3.2 | 4.8 | 0.00 | 0.00 | 0.00 | 33 | 1008.4 |
| 20260503215117 | 15 | 315 | 4.8 | 9.7 | 0.00 | 0.00 | 0.00 | 33 | 1008.5 |
| 20260503214117 | 15 | 293 | 6.4 | 11.3 | 0.00 | 0.00 | 0.00 | 33 | 1008.4 |
| 20260503213117 | 15 | 338 | 6.4 | 11.3 | 0.00 | 0.00 | 0.00 | 35 | 1008.3 |
| 20260503212117 | 15 | 45 | 4.8 | 12.9 | 0.00 | 0.00 | 0.00 | 35 | 1008.4 |
| 20260503211117 | 14 | 315 | 6.4 | 12.9 | 0.00 | 0.00 | 0.00 | 36 | 1008.3 |
| 20260503210117 | 15 | 270 | 9.7 | 14.5 | 0.00 | 0.00 | 0.00 | 34 | 1008.2 |
| 20260503205117 | 15 | 270 | 11.3 | 19.3 | 0.00 | 0.00 | 0.00 | 34 | 1008.4 |
| 20260503204117 | 14 | 315 | 8.0 | 17.7 | 0.00 | 0.00 | 0.00 | 35 | 1008.3 |
| 20260503203117 | 14 | 293 | 9.7 | 17.7 | 0.00 | 0.00 | 0.00 | 36 | 1008.3 |
| 20260503202137 | 14 | 315 | 4.8 | 9.7 | 0.00 | 0.00 | 0.00 | 37 | 1008.3 |
| 20260503201117 | 13 | 270 | 9.7 | 12.9 | 0.00 | 0.00 | 0.00 | 37 | 1008.3 |
| 20260503200117 | 13 | 315 | 11.3 | 22.5 | 0.00 | 0.00 | 0.00 | 38 | 1008.7 |
| 20260503195117 | 13 | 315 | 8.0 | 14.5 | 0.00 | 0.00 | 0.00 | 39 | 1008.5 |
| 20260503194117 | 13 | 315 | 4.8 | 9.7 | 0.00 | 0.00 | 0.00 | 41 | 1008.7 |
| 20260503193117 | 12 | 248 | 3.2 | 8.0 | 0.00 | 0.00 | 0.00 | 39 | 1008.7 |
| 20260503192117 | 13 | 293 | 9.7 | 17.7 | 0.00 | 0.00 | 0.00 | 40 | 1009.0 |
| 20260503191137 | 13 | 315 | 12.9 | 22.5 | 0.00 | 0.00 | 0.00 | 41 | 1008.8 |
| 20260503190117 | 13 | 315 | 9.7 | 17.7 | 0.00 | 0.00 | 0.00 | 38 | 1008.9 |
| 20260503185119 | 13 | 293 | 8.0 | 19.3 | 0.00 | 0.00 | 0.00 | 39 | 1008.8 |
| 20260503184117 | 13 | 293 | 16.1 | 30.6 | 0.00 | 0.00 | 0.00 | 38 | 1008.9 |
| 20260503183117 | 12 | 315 | 3.2 | 8.0 | 0.00 | 0.00 | 0.00 | 40 | 1008.9 |
| 20260503182116 | 12 | 293 | 4.8 | 6.4 | 0.00 | 0.00 | 0.00 | 40 | 1008.8 |
| 20260503181117 | 13 | 293 | 6.4 | 16.1 | 0.00 | 0.00 | 0.00 | 39 | 1008.7 |
| 20260503180117 | 12 | 293 | 6.4 | 8.0 | 0.00 | 0.00 | 0.00 | 38 | 1008.6 |